Cosmos 1933 Rocket - Orbit

View from above orbital plane
View from above orbital plane
View from above satellite
View from above satellite

Ground track
Ground track

The orbit data is extracted from the following two-line orbital elements,

1 18959U 88020B   13146.21513942  .00000270  00000-0  30610-4 0  9434
2 18959 082.5385 215.8000 0016341 350.5294 061.4702 14.82488551360795
Epoch (UTC): 26 May 2013 05:09:48
Eccentricity: 0.0016341
inclination: 82.5385°
perigee height: 610 km
apogee height: 633 km
right ascension of ascending node: 215.8000°
argument of perigee: 350.5294°
revolutions per day: 14.82488551
mean anomaly at epoch: 61.4702°
orbit number at epoch: 36079

The dashed part of the orbit path shows where the satellite is in the earth's shadow,  

Developed and maintained by Chris Peat, Heavens-Above GmbH. Please read the updated FAQ before sending e-mail. Imprint. DLR